Weather Roundup
Issued by NWS Chicago, IL

Home | Current Version | Previous Version | Text Only | Print | Product List | Glossary On
Versions: 1 2 3 4 5 6 7 8 9 10 11 12 13 14 15 16 17 18 19 20 21 22 23 24 25 26 27 28 29 30 31 32 33 34 35 36 37 38 39 40 41 42 43 44 45 46 47 48 49 50
000
NZUS59 KLOT 241109
HRRLOT

CHICAGO AREA WEATHER ROUNDUP
NATIONAL WEATHER SERVICE CHICAGO/ROMEOVILLE IL
600 AM CDT TUE OCT 24 2017

NOTE: "FAIR" INDICATES FEW OR NO CLOUDS BELOW 12,000 FEET WITH NO
SIGNIFICANT WEATHER AND/OR OBSTRUCTIONS TO VISIBILITY.

* THESE STATIONS ARE NOT UNDER NWS QUALITY CONTROL. THEY ALSO MAY NOT
  REPORT WEATHER SUCH AS PRECIPITATION OR FOG.

ILZ005-006-012>014-019>023-241200-
NORTHEAST ILLINOIS

CITY           SKY/WX    TMP DP  RH WIND       PRES   REMARKS
OHARE          LGT RAIN  48  44  86 W13G21    29.50F
MIDWAY         LGT RAIN  48  46  93 W12       29.52S FOG
AURORA         LGT RAIN  46  44  93 W17G24    29.56R
LANSING*       RAIN      47  46  99 W10       29.55S
JOLIET*        RAIN      48  46  95 W9        29.56S
WAUKEGAN       LGT RAIN  47  47 100 CALM      29.47S FOG
DUPAGE AIRPORT LGT RAIN  46  45  96 W17G26    29.52F
WHEELING       LGT RAIN  48  46  93 W13       29.50F
KANKAKEE*      DRIZZLE   46  44  91 W13       29.59S
MORRIS*        LGT RAIN  46  44  91 W14       29.57S
LEWIS AIRPORT* LGT RAIN  46  45  95 W12G18    29.55S
NORTHERLY ISL    N/A     48  45  89 SW7         N/A
$$

WIZ051-052-058>065-066-070>072-241200-
SOUTHEAST WISCONSIN

CITY           SKY/WX    TMP DP  RH WIND       PRES   REMARKS
MILWAUKEE      LGT RAIN  50  49  96 NW5       29.47S
KENOSHA*       HVY RAIN  48  46  93 W8        29.47S FOG
RACINE*        LGT RAIN  49  48  97 W5        29.48S FOG
BURLINGTON     RAIN      46  46 100 NW15      29.49R
WAUKESHA       CLOUDY    46  46 100 NW9       29.49R
WEST BEND      DRIZZLE   46  46 100 NW10      29.47S
$$

INZ001>003-010>013-019-020-241200-
NORTHWEST INDIANA

CITY           SKY/WX    TMP DP  RH WIND       PRES   REMARKS
GARY*          LGT RAIN  48  46  93 SW12      29.54S
MICHIGAN CITY* NOT AVBL
RENSSELAER*    NOT AVBL
VALPARAISO     LGT RAIN  48  46  93 SW10      29.54F
$$

LMZ740>746-241200-
SOUTHERN LAKE MICHIGAN

STATION/POSITION TIME  SKY/WX   TEMP WIND        PRES    VSBY
                                AIR  DIR/SP/G
                 (UTC)          (F)  (DEG/KT/KT) (MB)    (MI)
HARRISON CRIB    1040            49  260/ 18/ 23   N/A
BURNHAM HARBOR   1100            48  230/  3/ 11   N/A
CALUMET HARBOR   1048            47  230/  6/  9  999.4F
BURNS HARBOR     1040            49  230/ 12/ 18 1000.7S
MICHIGAN CITY    1040            48  200/ 17/ 20   N/A
$$

ABBREVIATIONS USED IN REMARKS
   TC - TEMPERATURE IN CELSIUS
  WCI - WIND CHILL INDEX
   HX - HEAT INDEX
  VSB - VISIBILITY
$$



USA.gov is the U.S. government's official web portal to all federal, state and local government web resources and services.